Location: Arrodets-la-Barthe
(43.0306°N, 0.2829°E)
Time: 01:32:16
(UTC+00:00)

Cosmos 2344 - Pass Details

Date: 06 June 2022
Orbit: 1228 x 3015 km, 63.3° (Epoch: 04 July)

Event Time Altitude Azimuth Distance (km) Brightness Sun altitude
Rises 20:48:45 0° 260° (W) 4,207 6.8 -11.2°
Reaches altitude 10° 20:51:59 10° 272° (W) 3,193 6.4 -11.6°
Maximum altitude 20:58:13 28° 331° (NNW) 2,153 5.7 -12.4°
Drops below altitude 10° 21:04:58 10° 29° (NNE) 3,471 6.1 -13.2°
Sets 21:08:41 0° 41° (NE) 4,642 6.7 -13.6°
